{"data":{"norad_id":52200,"intl_designator":"2022-035A","name":"GAOFEN-3 03","alt_names":[],"object_type":"PAYLOAD","status":"ACTIVE","operator":null,"country":"PRC","launch_date":"2022-04-06","launch_site_code":"JSC","launch_vehicle":null,"mission":null,"orbit_class":"UNKNOWN","rcs_meters":null,"size_class":null,"mass_kg":null,"dimensions":null,"purposes":[],"wikipedia_slug":null,"has_3d_model":false,"image_url":null,"decayed_at":null,"tle_current":{"epoch":"2026-05-25T04:42:30.512736Z","epoch_age_seconds":62081,"freshness":"FRESH","line1":"1 52200U 22035A   26145.19618649  .00000167  00000+0  63926-4 0  9996","line2":"2 52200  98.4072 154.1107 0000959  87.6005 272.5294 14.42220464217537","mean_motion":14.42220464,"eccentricity":9.59e-5,"inclination_deg":98.4072,"raan_deg":154.1107,"arg_perigee_deg":87.6005,"mean_anomaly_deg":272.5294,"bstar":6.3926e-5,"rev_number":21753,"period_min":99.846038518006,"perigee_km":750.48776094696,"apogee_km":751.8551623099,"semimajor_km":7129.3084616284,"source":"CELESTRAK","updated_at":"2026-05-25T13:37:57.650926Z"}}}